Location: Columbia
(38.9520°N, 92.3340°W)
Time: 16:16:18
(UTC-06:00)

FENGYUN 3A - Visible Passes

Search period start: 05 February 2016 00:00
Search period end: 15 February 2016 00:00
Orbit: 820 x 833 km, 98.5° (Epoch: 05 February)

Date Brightness Start Highest point End Pass type
(mag) Time Alt. Az. Time Alt. Az. Time Alt. Az.
05 Feb 4.9 19:16:49 23° NE 19:16:49 23° NE 19:19:35 10° N visible
05 Feb 5.9 20:58:18 19° NW 20:58:18 19° NW 21:00:02 10° NNW visible
06 Feb 5.1 18:57:32 19° NE 18:57:32 19° NE 19:00:10 10° NNE visible
06 Feb 5.4 20:39:02 26° NW 20:39:02 26° NW 20:41:28 10° NNW visible
07 Feb 5.3 18:38:15 14° NE 18:38:15 14° NE 18:40:21 10° NNE visible
07 Feb 4.8 20:19:44 34° NNW 20:19:44 34° NNW 20:22:44 10° NNW visible
08 Feb 4.4 20:00:27 40° N 20:00:27 40° N 20:03:52 10° N visible
09 Feb 4.3 19:41:09 38° NNE 19:41:09 38° NNE 19:44:53 10° N visible
09 Feb 6.2 21:22:38 15° WNW 21:22:38 15° WNW 21:24:09 10° NW visible
10 Feb 4.5 19:21:52 31° NE 19:21:52 31° NE 19:25:45 10° N visible
10 Feb 5.7 21:03:21 23° WNW 21:03:21 23° WNW 21:05:55 10° NW visible
11 Feb 4.8 19:02:34 23° ENE 19:02:34 23° ENE 19:06:26 10° NNE visible
11 Feb 5.1 20:44:04 33° NW 20:44:04 33° NW 20:47:25 10° NNW visible
12 Feb 5.1 18:43:17 16° ENE 18:43:42 16° ENE 18:46:49 10° NNE visible
12 Feb 4.4 20:24:47 48° NW 20:24:47 48° NW 20:28:44 10° NNW visible
13 Feb 5.5 18:24:13 10° ENE 18:25:09 10° ENE 18:26:06 10° NE visible
13 Feb 3.8 20:05:29 60° N 20:05:29 60° N 20:09:55 10° N visible
13 Feb 6.6 21:46:58 10° WNW 21:46:58 10° WNW 21:47:05 10° WNW visible
14 Feb 3.8 19:46:13 52° NE 19:46:13 52° NE 19:50:59 10° N visible
14 Feb 6.2 21:27:41 16° WNW 21:27:41 16° WNW 21:29:52 10° NW visible
